Weather History for New Haven, CT

Change the Weather History Date:

Friday, February 8, 2013

  Actual Average Record
Temperature  
Mean Temperature 29 °F -  
Max Temperature 34 °F 37 °F 28 °F (2014)
Min Temperature 24 °F 24 °F 19 °F (2014)
Degree Days  
Heating Degree Days 36    
Moisture  
Dew Point 27 °F    
Average Humidity 85    
Maximum Humidity 93    
Minimum Humidity 56    
Precipitation  
Precipitation 1.41 in - - ()
Sea Level Pressure  
Sea Level Pressure 29.86 in    
Wind  
Wind Speed 14 mph (NNE)    
Max Wind Speed 34 mph    
Max Gust Speed 47 mph    
Visibility 2 miles    
Events Fog , Snow , Thunderstorm    
Averages and records for this station are not official NWS values.
T = Trace of Precipitation, MM = Missing Value Source: NWS Daily Summary

Daily Weather History Graph

Daily Weather History Graph

Search for Another Location

Airport:

Trip Planner

Search our weather history database for the weather conditions in past years. The results will help you decide how hot, cold, wet, or windy it might be!

Date:

Astronomy

Feb. 08, 2013 Rise Set
Actual Time 6:54 AM EST 5:17 PM EST
Civil Twilight 6:26 AM EST 5:45 PM EST
Nautical Twilight 5:53 AM EST 6:18 PM EST
Astronomical Twilight 5:21 AM EST 6:50 PM EST
Moon 5:21 AM EST (2/8) 3:47 PM EST (2/8)
Length of Visible Light 11h 19m
Length of Day
10h 22m
Waning Crescent, 3% of the Moon is Illuminated
Feb 8
Waning Crescent
Feb 10
New
Feb 17
First Quarter
Feb 25
Full
Mar 4
Last Quarter

Hourly Weather History & Observations

Time (EST) Temp. Windchill Dew Point Humidity Pressure Visibility Wind Dir Wind Speed Gust Speed Precip Events Conditions
12:53 AM 30.9 °F 24.3 °F 18.0 °F 59% 30.36 in 10.0 mi NNE 6.9 mph - N/A   Overcast
1:53 AM 30.0 °F 21.1 °F 16.0 °F 56% 30.35 in 10.0 mi ENE 10.4 mph - N/A   Overcast
2:53 AM 30.0 °F 21.7 °F 17.1 °F 59% 30.32 in 10.0 mi ENE 9.2 mph - N/A   Overcast
3:53 AM 30.9 °F 23.5 °F 19.9 °F 64% 30.29 in 10.0 mi ENE 8.1 mph - N/A   Overcast
4:53 AM 30.9 °F 22.8 °F 21.9 °F 69% 30.25 in 10.0 mi NE 9.2 mph - N/A   Overcast
5:53 AM 32.0 °F 23.6 °F 24.1 °F 73% 30.23 in 10.0 mi NNE 10.4 mph - N/A   Overcast
6:53 AM 33.1 °F 25.5 °F 25.0 °F 72% 30.21 in 10.0 mi NE 9.2 mph - N/A   Overcast
7:32 AM 32.0 °F 24.2 °F 26.6 °F 80% 30.19 in 1.5 mi NE 9.2 mph - 0.00 in Snow Light Snow
7:39 AM 32.0 °F 24.8 °F 26.6 °F 80% 30.19 in 0.8 mi NE 8.1 mph - 0.00 in Snow Light Snow
7:53 AM 32.0 °F 24.8 °F 27.0 °F 82% 30.19 in 0.5 mi NE 8.1 mph - 0.02 in Snow Snow
8:53 AM 33.1 °F 26.1 °F 28.9 °F 85% 30.16 in 0.5 mi NE 8.1 mph - 0.05 in Fog , Snow Snow
9:18 AM 33.8 °F 25.8 °F 28.4 °F 81% 30.15 in 0.5 mi NE 10.4 mph - 0.01 in Fog , Snow Snow
9:53 AM 33.1 °F 24.4 °F 30.0 °F 89% 30.12 in 0.5 mi NE 11.5 mph 19.6 mph 0.03 in Fog , Snow Snow
10:53 AM 34.0 °F 24.6 °F 30.0 °F 85% 30.07 in 0.5 mi NE 13.8 mph - 0.02 in Fog , Snow Snow
11:00 AM 33.8 °F 23.9 °F 28.4 °F 81% 30.06 in 0.8 mi NE 15.0 mph 23.0 mph 0.00 in Snow Light Snow
11:11 AM 33.8 °F 23.9 °F 28.4 °F 81% 30.05 in 1.0 mi NE 15.0 mph 21.9 mph 0.00 in Snow Light Snow
11:53 AM 34.0 °F 24.2 °F 28.9 °F 82% 30.01 in 1.0 mi NE 15.0 mph 20.7 mph 0.01 in Snow Light Snow
12:00 PM 33.8 °F 25.3 °F 28.4 °F 81% 30.00 in 0.8 mi NE 11.5 mph 20.7 mph 0.00 in Snow Light Snow
12:35 PM 33.8 °F 24.8 °F 28.4 °F 81% 29.97 in 0.5 mi NE 12.7 mph 21.9 mph 0.02 in Fog , Snow Snow
12:53 PM 33.1 °F 23.9 °F 28.9 °F 85% 29.95 in 0.5 mi NE 12.7 mph - 0.03 in Fog , Snow Snow
1:08 PM 33.8 °F 23.9 °F 28.4 °F 81% 29.93 in 0.5 mi NE 15.0 mph - 0.01 in Fog , Snow Snow
1:14 PM 33.8 °F 23.2 °F 30.2 °F 87% 29.92 in 0.5 mi NE 17.3 mph 26.5 mph 0.01 in Fog , Snow Snow
1:21 PM 33.8 °F 23.5 °F 30.2 °F 87% 29.91 in 0.5 mi NE 16.1 mph 26.5 mph 0.01 in Fog , Snow Snow
1:34 PM 33.8 °F 23.9 °F 30.2 °F 87% 29.89 in 0.8 mi NE 15.0 mph 23.0 mph 0.02 in Snow Light Snow
1:53 PM 34.0 °F 24.6 °F 30.0 °F 85% 29.88 in 0.8 mi NE 13.8 mph 25.3 mph 0.03 in Snow Light Snow
2:03 PM 33.8 °F 23.5 °F 30.2 °F 87% 29.87 in 0.5 mi NE 16.1 mph 24.2 mph 0.01 in Fog , Snow Snow
2:09 PM 33.8 °F 23.5 °F 30.2 °F 87% 29.86 in 0.5 mi NE 16.1 mph - 0.01 in Fog , Snow Snow
2:21 PM 33.8 °F 22.8 °F 30.2 °F 87% 29.84 in 0.5 mi NNE 18.4 mph 24.2 mph 0.02 in Fog , Snow Snow
2:32 PM 33.8 °F 23.5 °F 30.2 °F 87% 29.83 in 0.5 mi NE 16.1 mph 24.2 mph 0.02 in Fog , Snow Snow
2:53 PM 34.0 °F 24.2 °F 30.0 °F 85% 29.81 in 0.8 mi NE 15.0 mph 25.3 mph 0.03 in Snow Light Snow
3:01 PM 33.8 °F 23.2 °F 30.2 °F 87% 29.80 in 0.5 mi NE 17.3 mph 25.3 mph 0.01 in Fog , Snow Snow
3:53 PM 34.0 °F 22.4 °F 30.9 °F 89% 29.75 in 0.5 mi NNE 20.7 mph 29.9 mph 0.03 in Fog , Snow Snow
4:20 PM 33.8 °F 21.9 °F 30.2 °F 87% 29.73 in 0.2 mi NNE 21.9 mph 31.1 mph 0.01 in Fog , Snow Snow
4:53 PM 34.0 °F 23.0 °F 30.9 °F 89% 29.71 in 0.2 mi NNE 18.4 mph 27.6 mph 0.03 in Fog , Snow Heavy Snow
5:12 PM 33.8 °F 22.5 °F 30.2 °F 87% 29.71 in 0.5 mi NNE 19.6 mph 26.5 mph 0.01 in Fog , Snow Snow
5:42 PM 33.8 °F 23.2 °F 30.2 °F 87% 29.70 in 0.5 mi NNE 17.3 mph 24.2 mph 0.03 in Fog , Snow Snow
5:53 PM 32.0 °F 19.8 °F 30.0 °F 92% 29.69 in 0.5 mi NNE 20.7 mph 28.8 mph 0.04 in Fog , Snow Snow
6:27 PM 30.2 °F 17.4 °F 28.4 °F 93% 29.65 in 0.2 mi NNE 20.7 mph 27.6 mph 0.02 in Fog , Snow Heavy Snow
6:53 PM 30.0 °F 16.6 °F 28.0 °F 92% 29.61 in 0.5 mi NNE 23.0 mph 34.5 mph 0.05 in Fog , Snow Snow
7:10 PM 30.2 °F 16.5 °F 28.4 °F 93% 29.60 in 0.5 mi NNE 24.2 mph 35.7 mph 0.02 in Fog , Snow Snow
7:14 PM 30.2 °F 16.5 °F 26.6 °F 86% 29.60 in 0.2 mi North 24.2 mph 34.5 mph 0.02 in Fog , Snow Heavy Snow
7:34 PM 28.4 °F 13.5 °F 26.6 °F 93% 29.59 in 0.2 mi NNE 26.5 mph 40.3 mph 0.06 in Fog , Snow Heavy Snow
7:43 PM 28.4 °F 13.3 °F 26.6 °F 93% 29.57 in 0.2 mi North 27.6 mph 39.1 mph 0.08 in Fog , Snow Heavy Snow
7:53 PM 28.9 °F 13.2 °F 27.0 °F 92% 29.56 in 0.2 mi North 31.1 mph 39.1 mph 0.14 in Fog , Snow Snow
8:17 PM 28.4 °F 14.4 °F 26.6 °F 93% 29.54 in 0.5 mi North 23.0 mph 39.1 mph 0.12 in Fog , Snow Light Snow
8:39 PM 28.4 °F 13.0 °F 26.6 °F 93% 29.54 in 0.5 mi North 28.8 mph 38.0 mph N/A Fog , Snow Snow
8:47 PM 28.4 °F 12.5 °F 26.6 °F 93% 29.52 in 0.5 mi North 31.1 mph 43.7 mph 0.34 in Fog , Snow , Thunderstorm Snow
8:53 PM 28.0 °F 11.3 °F 25.0 °F 88% 29.52 in 0.2 mi North 34.5 mph 46.0 mph 0.38 in Fog , Snow , Thunderstorm Heavy Snow
9:02 PM 28.4 °F 13.0 °F 26.6 °F 93% 29.51 in 0.5 mi North 28.8 mph 47.2 mph 0.06 in Fog , Snow Snow
9:53 PM 26.1 °F 9.3 °F 24.1 °F 92% 29.54 in 0.2 mi North 31.1 mph 41.4 mph 0.34 in Fog , Snow Heavy Snow
10:05 PM 26.6 °F 12.0 °F 24.8 °F 93% 29.56 in 0.5 mi North 23.0 mph 36.8 mph 0.02 in Fog , Snow Snow
10:20 PM 24.8 °F 9.6 °F 23.0 °F 93% 29.58 in 0.2 mi North 23.0 mph 40.3 mph 0.04 in Fog , Snow Heavy Snow
10:53 PM 25.0 °F 9.5 °F 21.9 °F 88% 29.60 in 0.2 mi North 24.2 mph 35.7 mph 0.11 in Fog Light Freezing Fog
11:41 PM 24.8 °F 11.9 °F 21.2 °F 86% 29.63 in 0.5 mi North 16.1 mph 28.8 mph 0.06 in Fog Light Freezing Fog
11:49 PM 24.8 °F 10.0 °F 21.2 °F 86% 29.64 in 0.5 mi North 21.9 mph 33.4 mph 0.06 in Fog Light Freezing Fog
11:53 PM 24.1 °F 11.5 °F 21.9 °F 91% 29.65 in 0.5 mi North 15.0 mph 33.4 mph 0.07 in Fog Light Freezing Fog